Regional Weather Roundup
Issued by NWS Cleveland, OH

Home | Current Version | Previous Version | Text Only | Print | Product List | Glossary Off
Versions: 1 2 3 4 5 6 7 8 9 10 11 12 13 14 15 16 17 18 19 20 21 22 23 24 25 26 27 28 29 30 31 32 33 34 35 36 37 38 39 40 41 42 43 44 45 46 47 48 49 50

567
ASUS41 KCLE 200910
RWRCLE
OHIO REGIONAL WEATHER ROUNDUP
NATIONAL WEATHER SERVICE WILMINGTON, OH
400 AM EST FRI JAN 20 2017

NOTE: "FAIR" INDICATES FEW OR NO CLOUDS BELOW 12,000 FEET WITH NO
SIGNIFICANT WEATHER AND/OR OBSTRUCTIONS TO VISIBILITY.

OHZ001>008-015>018-024>027-034-035-043-044-201000-
   NORTHWEST OHIO

CITY           SKY/WX    TMP DP  RH WIND       PRES   REMARKS
DEFIANCE       LGT RAIN  35  34  96 E9        29.69F FOG     WCI  28
FINDLAY        RAIN      39  35  86 E12       29.67F FOG
TOLEDO EXPRESS LGT RAIN  34  34 100 E8        29.72F FOG     WCI  27
TOLEDO EXEC    CLOUDY    35  35 100 E9        29.75F FOG     WCI  28
LIMA           RAIN      40  40 100 E20G28    29.62F FOG
$$

OHZ009>014-019>023-028>033-038-089-201000-
   NORTHEAST OHIO

CITY           SKY/WX    TMP DP  RH WIND       PRES   REMARKS
CLE-HOPKINS    CLOUDY    40  34  79 SE6       29.78F
CLE-LAKEFRONT  FAIR      40  34  79 SE8       29.76F
CUY CO. ARPT   NOT AVBL
LORAIN-ELYRIA  MOCLDY    37  32  82 SE9       29.76F
ASHTABULA      FAIR      34  32  92 SE7       29.80F WCI  28
AKRON-CANTON   CLOUDY    38  33  82 SE9       29.76F HAZE
WOOSTER        MIX PCPN  37  34  89 SE7       29.76F
MANSFIELD      LGT RAIN  37  37 100 SE12      29.72F FOG
YOUNGSTOWN     CLOUDY    35  32  88 E10       29.78F WCI  27
$$

OHZ042-051>053-060>062-070>072-077>081-201000-
  SOUTHWEST OHIO

CITY           SKY/WX    TMP DP  RH WIND       PRES   REMARKS
CINC-COVINGTON LGT RAIN  50  49  96 SE15      29.58F FOG
CINC-LUNKEN    LGT RAIN  50  49  96 S3        29.61F
HAMILTON       LGT RAIN  49  49 100 SE5       29.60F FOG
DAYTON         RAIN      43  42  97 E18       29.60F FOG
WRIGHT-PAT AFB LGT RAIN  43  43 100 E7        29.61F
DAYTON GENERAL LGT RAIN  45  44  97 SE12      29.59S
WILMINGTON     RAIN      43  43 100 SE10      29.61F FOG
$$

OHZ036-037-039>041-045>050-054>059-063>069-073>076-082>088-201000-
  CENTRAL AND SOUTHEAST OHIO

CITY           SKY/WX    TMP DP  RH WIND       PRES   REMARKS
COLUMBUS       RAIN      43  40  89 E9        29.68F FOG
OSU AIRPORT    LGT RAIN  41  41 100 E9        29.67F FOG
BOLTON FIELD   RAIN      40  40  99 E10       29.67F
RICKENBACK AFB RAIN      40  40 100 E8        29.68F
NEWARK         LGT RAIN  39  37  92 NE5       29.71F FOG
MARION         LGT RAIN  39  37  92 SE12      29.69F FOG
LANCASTER      LGT RAIN  43  41  93 E8        29.70F FOG
ZANESVILLE     LGT RAIN  40  37  89 E6        29.73F FOG
NEW PHILLY     CLOUDY    38  36  92 CALM      29.77F
$$




USA.gov is the U.S. government's official web portal to all federal, state and local government web resources and services.